Regional Weather Roundup
Issued by NWS

Home | Current Version | Previous Version | Graphics & Text | Print | Product List | Glossary On
Versions: 1 2 3 4 5 6 7 8 9 10 11 12 13 14 15 16 17 18 19 20 21 22 23 24 25 26 27 28 29 30 31 32 33 34 35 36 37 38 39 40 41 42 43 44 45 46 47 48 49 50
539
ASUS43 KMPX 221801
RWRMN
WEATHER ROUNDUP FOR MINNESOTA
NATIONAL WEATHER SERVICE TWIN CITIES/CHANHASSEN MN
100 PM CDT SUN APR 22 2018


NOTE: "FAIR" INDICATES FEW OR NO CLOUDS BELOW 12,000 FEET WITH NO
SIGNIFICANT WEATHER AND/OR OBSTRUCTIONS TO VISIBILITY. N/A MEANS
CURRENT SKY AND/OR WEATHER CONDITIONS ARE NOT AVAILABLE.

MNZ060>063-068>070-221900-
   Twin Cities Metro

CITY           SKY/WX    TMP DP  RH WIND       PRES   REMARKS
TWIN CITIES    FAIR      59  32  36 SE7       30.33F
6HR MIN TEMP:  35; 6HR MAX TEMP:  60;

ST PAUL        FAIR      60  32  34 S8        30.34F
BLAINE         MOSUNNY   61  30  31 S6        30.33F
LAKEVILLE      FAIR      57  36  44 SE3       30.33F
EDEN PRAIRIE   FAIR      58  32  37 S6        30.32F
6HR MIN TEMP:  33; 6HR MAX TEMP:  59;

SOUTH ST PAUL  FAIR      58  30  33 CALM      30.34F
LAKE ELMO      FAIR      57  37  47 W5        30.35F
$$
MNZ001>005-007-008-013>017-022>024-027-028-221900-
   Northwest Minnesota

CITY           SKY/WX    TMP DP  RH WIND       PRES   REMARKS
BEMIDJI        FAIR      60  30  33 SW12      30.24F
HALLOCK        FAIR      63  36  36 SW21G31   30.14F
ROSEAU         FAIR      57  41  54 SW25      30.18F
WARROAD        FAIR      59  37  44 SW22G30   30.19F
CROOKSTON      FAIR      59  39  47 SW20G29   30.21F
FOSSTON        FAIR      57  32  38 S22       30.22F
DETROIT LAKES  FAIR      59  30  33 S12       30.26S
MOORHEAD       FAIR      57  37  47 S12G21    30.24F
PARK RAPIDS    FAIR      59  33  37 S15G23    30.25F
MAHNOMEN       FAIR      60  34  38 S17G23    30.23F
$$
MNZ006-009>011-018-025>026-221900-
   North Central Minnesota

CITY           SKY/WX    TMP DP  RH WIND       PRES   REMARKS
BAUDETTE       FAIR      59  32  36 S16G26    30.20S
FLAG ISLAND    FAIR      52  28  40 S18G26    30.15F
INTL FALLS     FAIR      60  32  34 SW13G22   30.23F
6HR MIN TEMP:  32; 6HR MAX TEMP:  60;

WASKISH        PTSUNNY   57  32  38 SW9       30.23F
BIG FORK       FAIR      57  34  41 S9G17     30.26S
LONGVILLE      FAIR      59  28  31 SW10      30.28F
GRAND RAPIDS   FAIR      56  29  35 S12       30.30F
CRANE LAKE     FAIR      55  28  35 SW8       30.28S
ORR            FAIR      57  25  28 S9G18     30.24S
COOK           FAIR      57  30  35 S9G16     30.28F
WALKER         FAIR      59  30  32 SW14G20   30.25F
$$
MNZ012-019>021-037-221900-
   Northeast Minnesota

CITY           SKY/WX    TMP DP  RH WIND       PRES   REMARKS
DULUTH         FAIR      57  29  34 SW13      30.31F
6HR MIN TEMP:  32; 6HR MAX TEMP:  58;

ELY            FAIR      55  19  24 SW9G16    30.28F
HIBBING        FAIR      56  26  31 SW8G18    30.28F
EVELETH        FAIR      59  24  26 S13G26    30.29F
DULUTH HARBOR  FAIR      39  30  70 E7        30.34F
TWO HARBORS    FAIR      61  32  33 S9        30.31F
SILVER BAY     FAIR      55  21  26 S9        30.31F
GRAND MARAIS     N/A     42  27  55 E5        30.35F
G MARAIS ARPRT FAIR      52  16  24 S6        30.33F
$$
MNZ029>031-032-039>041-046>048-054>057-064-221900-
   West Central Minnesota

CITY           SKY/WX    TMP DP  RH WIND       PRES   REMARKS
FERGUS FALLS   FAIR      59  36  41 SW16      30.24F
WHEATON        SUNNY     57  34  41 SE15      30.28F
MORRIS         SUNNY     57  43  58 S9        30.29S
ALEXANDRIA     FAIR      62  33  33 S16       30.30F
ELBOW LAKE     FAIR      58  38  46 SW14      30.29S
WADENA         FAIR      57  34  41 S13G18    30.27F
GLENWOOD       FAIR      59  34  38 S10G18    30.30F
APPLETON       SUNNY     59  37  44 SE10      30.29F
BENSON         SUNNY     59  37  44 SW10      30.32F
ORTONVILLE     SUNNY     61  36  39 S9G16     30.27F
MADISON        SUNNY     55  43  62 S9        30.30S
WILLMAR        FAIR      57  39  51 SE12      30.33F
$$
MNZ033>034-036-042>043-049>051-058-059-221900-
   Central Minnesota

CITY           SKY/WX    TMP DP  RH WIND       PRES   REMARKS
ST CLOUD       FAIR      59  32  36 S10       30.32F
6HR MIN TEMP:  29; 6HR MAX TEMP:  59;

SAUK CENTRE    FAIR      58  33  38 S14G22    30.31F
PAYNESVILLE    FAIR      58  35  42 SE12      30.31F
AITKIN         FAIR      55  30  38 S9        30.30F
PINE RIVER     FAIR      55  34  44 S13       30.31F
BRAINERD       FAIR      60  31  33 S8        30.30F
STAPLES        FAIR      57  30  35 S12       30.29F
LONG PRAIRIE   FAIR      59  34  38 SE12      30.31F
LITTLE FALLS   FAIR      57  23  26 S9        30.32S
LITCHFIELD     FAIR      57  34  41 SE6       30.33F
BUFFALO        FAIR      57  32  38 CALM      30.34F
MAPLE LAKE     FAIR      58  37  44 S5        30.35S
HUTCHINSON     FAIR      56  37  48 SE6       30.34F
$$
MNZ037-044-045-052-053-221900-
   East Central Minnesota

CITY           SKY/WX    TMP DP  RH WIND       PRES   REMARKS
PRINCETON      FAIR      63  30  29 S5        30.33F
MORA           FAIR      55  32  41 S7        30.35F
CAMBRIDGE      FAIR      61  37  41 SW5       30.33F
RUSH CITY      FAIR      58  32  38 SE5       30.34F
MOOSE LAKE     FAIR      59  32  36 SW7       30.31F
HINCKLEY       FAIR      57  36  44 SW6       30.34S
CLOQUET        FAIR      57  21  24 S12       30.31F
MCGREGOR       FAIR      57  30  35 SW10      30.32F
$$
MNZ071>073-080-081-089-090-097-098-221900-
   Southwest Minnesota

CITY           SKY/WX    TMP DP  RH WIND       PRES   REMARKS
MONTEVIDEO     SUNNY     57  37  47 S9        30.31S
GRANITE FALLS  SUNNY     57  44  62 SE13      30.32F HAZE
CANBY          SUNNY     55  38  54 SE7       30.31S
MARSHALL       SUNNY     52  42  69 S10       30.31F
REDWOOD FALLS  SUNNY     56  38  50 SE10      30.31F
OLIVIA         SUNNY     55  41  58 SE8       30.32F
PIPESTONE      SUNNY    N/A N/A N/A SE9       30.29F
WINDOM         SUNNY     50  30  46 E6        30.32F
WORTHINGTON    SUNNY     52  35  52 SE9       30.31F
JACKSON        SUNNY     45  36  70 NE6       30.33S
TRACY          SUNNY     51  42  70 S7        30.31F
SLAYTON        SUNNY     46  38  74 SE8       30.32F
$$
MNZ065>067-074>077-082>085-091>093-221900-
   South Central Minnesota

CITY           SKY/WX    TMP DP  RH WIND       PRES   REMARKS
MANKATO        FAIR      56  37  49 SE12      30.32F
NEW ULM        SUNNY     55  37  50 SE5       30.33F
ST JAMES       SUNNY     50  39  66 E5        30.34F
FAIRMONT       SUNNY     45  35  68 E7        30.33F
GLENCOE        FAIR      57  36  45 E3        30.33F
OWATONNA       FAIR      55  39  54 E10       30.33F
WASECA         FAIR      55  41  58 SE12      30.34F
ALBERT LEA     FAIR      52  25  35 E9        30.32F
$$
MNZ078>079-086>088-094>096-221900-
   Southeast Minnesota

CITY           SKY/WX    TMP DP  RH WIND       PRES   REMARKS
ROCHESTER      FAIR      54  37  52 SE12      30.34F
6HR MIN TEMP:  38; 6HR MAX TEMP:  54;

RED WING       FAIR      61  27  27 S6        30.32F
STANTON        FAIR      59  35  39 CALM      30.32F
DODGE CENTER   FAIR      55  36  47 E8        30.33F
WINONA         FAIR      59  28  31 SE8       30.32F
AUSTIN         FAIR      54  36  50 E9        30.33S
PRESTON        FAIR      55  28  35 SE9       30.34F
$$
ABBREVIATIONS USED IN REMARKS
   TC - TEMPERATURES IN CELSIUS
  WCI - WIND CHILL INDEX
   HX - HEAT INDEX
  VSB - VISIBILITY
$$




USA.gov is the U.S. government's official web portal to all federal, state and local government web resources and services.